Durant, OK

3:03 AM CST on December 07, 2019 (GMT -0600)
Eaker

Weather History for KDUA - October, 2019

Change the Weather History Date:

Wednesday, October 9, 2019

  Actual Average (KMLC) Record (KMLC)
Temperature  
Mean Temperature 71 °F -  
Max Temperature 87 °F 76 °F 98 °F (1963)
Min Temperature 55 °F 51 °F 26 °F (2000)
Cooling Degree Days 6    
Growing Degree Days 21 (Base 50)    
Moisture  
Dew Point 57 °F    
Average Humidity 68    
Maximum Humidity 88    
Minimum Humidity 43    
Precipitation  
Precipitation 0.00 in - - ()
Sea Level Pressure  
Sea Level Pressure 29.92 in    
Wind  
Wind Speed 7 mph (SSE)    
Max Wind Speed 20 mph    
Max Gust Speed 25 mph    
Visibility 10 miles    
Events      
Averages and records for this station are not official NWS values.
T = Trace of Precipitation, MM = Missing Value Source: NWS Daily Summary

Daily Weather History Graph

Daily Weather History Graph

Search for Another Location

Airport or City:

Astronomy

Oct. 09, 2019 Rise Set
Actual Time 7:25 AM CDT 6:59 PM CDT
Civil Twilight 7:00 AM CDT 7:24 PM CDT
Nautical Twilight 6:31 AM CDT 7:53 PM CDT
Astronomical Twilight 6:02 AM CDT 8:22 PM CDT
Moon 5:17 PM CDT (10/9) 3:29 AM CDT (10/9)
Length of Visible Light 12h 23m
Length of Day
11h 33m
Waxing Gibbous, 85% of the Moon is Illuminated
Oct 9
Waxing Gibbous
Oct 13
Full
Oct 21
Last Quarter
Oct 27
New
Nov 4
First Quarter

Hourly Weather History & Observations

Time (CDT) Temp. Heat Index Dew Point Humidity Pressure Visibility Wind Dir Wind Speed Gust Speed Precip Events Conditions
12:16 AM 55.4 °F - 48.2 °F 77% 30.01 in 10.0 mi SE 4.6 mph - N/A   Clear
12:54 AM 55.4 °F - 48.2 °F 77% 30.01 in 10.0 mi SE 3.5 mph - N/A   Clear
1:14 AM 55.4 °F - 48.2 °F 77% 30.01 in 10.0 mi Calm Calm - N/A   Clear
1:36 AM 55.4 °F - 50.0 °F 82% 30.01 in 10.0 mi SSE 3.5 mph - N/A   Clear
1:54 AM 55.4 °F - 50.0 °F 82% 30.00 in 10.0 mi SE 3.5 mph - N/A   Clear
2:36 AM 57.2 °F - 50.0 °F 77% 30.00 in 10.0 mi SE 4.6 mph - N/A   Clear
2:56 AM 57.2 °F - 50.0 °F 77% 30.00 in 10.0 mi Calm Calm - N/A   Clear
3:16 AM 55.4 °F - 50.0 °F 82% 29.99 in 10.0 mi SE 4.6 mph - N/A   Clear
3:55 AM 57.2 °F - 51.8 °F 82% 29.98 in 10.0 mi SE 4.6 mph - N/A   Clear
4:15 AM 57.2 °F - 51.8 °F 82% 29.97 in 10.0 mi ESE 5.8 mph - N/A   Clear
4:35 AM 57.2 °F - 51.8 °F 82% 29.98 in 10.0 mi SE 3.5 mph - N/A   Clear
4:55 AM 57.2 °F - 51.8 °F 82% 29.99 in 10.0 mi SSE 4.6 mph - N/A   Clear
5:37 AM 57.2 °F - 51.8 °F 82% 29.99 in 10.0 mi SE 3.5 mph - N/A   Clear
6:16 AM 55.4 °F - 51.8 °F 88% 29.99 in 10.0 mi ESE 3.5 mph - N/A   Clear
6:36 AM 55.4 °F - 51.8 °F 88% 30.00 in 10.0 mi Calm Calm - N/A   Clear
6:55 AM 55.4 °F - 50.0 °F 82% 30.00 in 10.0 mi Calm Calm - N/A   Clear
7:17 AM 55.4 °F - 51.8 °F 88% 30.00 in 10.0 mi ESE 3.5 mph - N/A   Clear
7:35 AM 55.4 °F - 51.8 °F 88% 30.00 in 10.0 mi ESE 3.5 mph - N/A   Clear
7:56 AM 55.4 °F - 51.8 °F 88% 30.00 in 10.0 mi SE 4.6 mph - N/A   Clear
8:37 AM 60.8 °F - 53.6 °F 77% 29.98 in 10.0 mi SE 10.4 mph - N/A   Clear
8:56 AM 60.8 °F - 53.6 °F 77% 29.98 in 10.0 mi SE 6.9 mph - N/A   Clear
9:16 AM 62.6 °F - 55.4 °F 77% 29.98 in 10.0 mi SSE 10.4 mph - N/A   Clear
10:35 AM 69.8 °F - 60.8 °F 73% 29.98 in 10.0 mi South 13.8 mph - N/A   Mostly Cloudy
11:35 AM 75.2 °F - 62.6 °F 65% 29.97 in 10.0 mi South 12.7 mph - N/A   Overcast
11:56 AM 77.0 °F - 62.6 °F 61% 29.96 in 10.0 mi South 18.4 mph 23.0 mph N/A   Overcast
1:15 PM 80.6 °F 81.8 °F 62.6 °F 54% 29.91 in 10.0 mi South 13.8 mph 19.6 mph N/A   Scattered Clouds
1:35 PM 82.4 °F 83.4 °F 62.6 °F 51% 29.90 in 10.0 mi South 16.1 mph 20.7 mph N/A   Clear
1:56 PM 82.4 °F 83.4 °F 62.6 °F 51% 29.89 in 10.0 mi South 17.3 mph 21.9 mph N/A   Clear
2:17 PM 84.2 °F 85.0 °F 62.6 °F 48% 29.88 in 10.0 mi South 18.4 mph - N/A   Clear
2:35 PM 84.2 °F 85.0 °F 62.6 °F 48% 29.86 in 10.0 mi SSE 16.1 mph - N/A   Clear
3:35 PM 87.8 °F 88.5 °F 62.6 °F 43% 29.83 in 10.0 mi SSE 19.6 mph 25.3 mph N/A   Scattered Clouds
3:55 PM 87.8 °F 88.5 °F 62.6 °F 43% 29.83 in 10.0 mi SSE 17.3 mph 25.3 mph N/A   Clear
5:16 PM 86.0 °F 86.1 °F 60.8 °F 43% 29.81 in 10.0 mi SSE 13.8 mph - N/A   Scattered Clouds
5:37 PM 84.2 °F 84.4 °F 60.8 °F 45% 29.81 in 10.0 mi SSE 18.4 mph 21.9 mph N/A   Clear
5:56 PM 84.2 °F 84.4 °F 60.8 °F 45% 29.81 in 10.0 mi SSE 13.8 mph - N/A   Clear
6:35 PM 82.4 °F 82.9 °F 60.8 °F 48% 29.81 in 10.0 mi SSE 10.4 mph - N/A   Clear
7:17 PM 80.6 °F 81.5 °F 60.8 °F 51% 29.82 in 10.0 mi SE 9.2 mph - N/A   Clear
7:57 PM 78.8 °F - 60.8 °F 54% 29.83 in 10.0 mi SE 9.2 mph - N/A   Clear
8:35 PM 75.2 °F - 60.8 °F 61% 29.83 in 10.0 mi SE 6.9 mph - N/A   Clear
9:15 PM 75.2 °F - 60.8 °F 61% 29.83 in 10.0 mi SSE 9.2 mph 16.1 mph N/A   Clear
9:36 PM 75.2 °F - 60.8 °F 61% 29.84 in 10.0 mi SE 10.4 mph - N/A   Clear
9:55 PM 75.2 °F - 60.8 °F 61% 29.84 in 10.0 mi SE 11.5 mph - N/A   Clear
10:15 PM 75.2 °F - 60.8 °F 61% 29.84 in 10.0 mi SE 10.4 mph 16.1 mph N/A   Clear
10:35 PM 75.2 °F - 60.8 °F 61% 29.85 in 10.0 mi SSE 11.5 mph 16.1 mph N/A   Clear
11:15 PM 75.2 °F - 62.6 °F 65% 29.84 in 10.0 mi Calm Calm - N/A   Clear
11:55 PM 75.2 °F - 62.6 °F 65% 29.83 in 10.0 mi SSE 11.5 mph 21.9 mph N/A   Clear